Location: Alt?nova Orta
(36.9295°N, 30.7847°E)
Time: 20:23:04
(UTC+00:00)

STARLINK-1092 - Pass Details

Date: 17 February 2020
Orbit: 374 x 385 km, 53.0° (Epoch: 07 April)

Event Time Altitude Azimuth Distance (km) Brightness Sun altitude
Exits shadow 03:40:10 26° 274° (W) 794 3.8 -13.4°
Maximum altitude 03:41:21 38° 322° (NW) 607 3.5 -13.1°
Drops below altitude 10° 03:44:21 10° 33° (NNE) 1,413 6.1 -12.5°
Sets 03:46:29 0° 41° (NE) 2,267 7.3 -12.1°
